Content
SEND FEEDBACK

Daily
Averages
Monthly
Summary
United States of America

CLARKSTON HEIGHTS, WASHINGTON


Home > North America > United States > Washington
Elevation: 438 meters     Latitude: 46 23N     Longitude: 117 01W

WEATHER
 
SELECT A DAY
Number of Records: 187,266;   Date Range: 1/1/95 - 8/12/14
 
SHARE

PRINT THIS DATA

[ ← Previous Day ]
WEATHER ALMANAC - 31 JANUARY, 2013
[ Next Day → ]
[ °F ]   °C
Weather ElementAverageHighLow
Temperature6.7 °C9.4 °C (12:56 pm)4.4 °C (4:56 am)
Dewpoint4 °C5.6 °C (12:56 pm)2.2 °C (1:56 am)
Humidity83.5 %93 % (7:56 am)74 % (3:56 pm)
Barometer1025.1 hPa1026.8 hPa (10:56 am)1023.7 hPa (9:56 pm)
Wind Speed3.7 km/h7.4 km/h (4:56 am)
Weather ElementAverage
Visibility15.9 km
Wind DirectionENE (63.9 °)

Weather ElementTotal
Precipitation0.25 mm
Heating Degree Days11.4 (Base 18.3)
Averaged from 23 records on 31 January, 2013
WEATHER CONDITIONS BREAKOUT
WIND DIRECTION BREAKOUT
WEATHER BY HOUR - 31 JANUARY, 2013
[ °F ]   °C
Local TimeTemperatureDewpointHumidityBarometerVisibilityWind DirectionWind SpeedGust SpeedPrecipitationEventsConditions
1:56 AM6.1 °C2.2 °C76 %1025.4 hPa16.1 kmNE (50°)5.6 km/hClear
2:56 AM6.1 °C2.2 °C76 %1025.4 hPa16.1 kmCalmClear
3:56 AM5 °C2.2 °C82 %1025.7 hPa16.1 kmCalmOvercast
4:56 AM4.4 °C2.8 °C89 %1025.7 hPa16.1 kmSSE (150°)7.4 km/h0 mmRainLight Rain
5:56 AM4.4 °C2.8 °C89 %1025.7 hPa16.1 kmCalm0 mmOvercast
6:56 AM5 °C3.3 °C89 %1025.7 hPa16.1 kmCalm0.25 mmRainLight Rain
7:56 AM4.4 °C3.3 °C93 %1026.1 hPa16.1 kmNNE (30°)5.6 km/h0 mmRainLight Rain
8:56 AM5 °C3.9 °C93 %1026.4 hPa14.5 kmCalm0 mmOvercast
9:56 AM6.1 °C4.4 °C89 %1026.4 hPa14.5 kmNNW (330°)5.6 km/hOvercast
10:56 AM6.7 °C4.4 °C85 %1026.8 hPa16.1 kmNE (50°)5.6 km/hMostly Cloudy
11:56 AM8.3 °C5 °C80 %1026.1 hPa16.1 kmCalmOvercast
12:56 PM9.4 °C5.6 °C77 %1025.4 hPa16.1 kmNE (40°)5.6 km/hOvercast
1:56 PM9.4 °C5.6 °C77 %1025.1 hPa16.1 kmNE (40°)5.6 km/hMostly Cloudy
2:56 PM8.9 °C5 °C77 %1025.1 hPa16.1 kmNE (50°)7.4 km/hOvercast
3:56 PM9.4 °C5 °C74 %1024.4 hPa16.1 kmNE (40°)7.4 km/hMostly Cloudy
4:56 PM8.3 °C4.4 °C77 %1024.4 hPa16.1 kmESE (110°)5.6 km/hPartly Cloudy
5:56 PM7.2 °C4.4 °C82 %1024.4 hPa16.1 kmCalmMostly Cloudy
6:56 PM7.2 °C4.4 °C82 %1024 hPa16.1 kmCalmOvercast
7:56 PM7.2 °C4.4 °C82 %1024 hPa16.1 kmSE (130°)5.6 km/hOvercast
8:56 PM6.7 °C4.4 °C85 %1024 hPa16.1 kmSE (130°)5.6 km/hOvercast
9:56 PM6.1 °C4.4 °C89 %1023.7 hPa16.1 kmNNE (20°)7.4 km/hOvercast
10:56 PM6.1 °C4.4 °C89 %1023.7 hPa16.1 kmCalmOvercast
11:56 PM5.6 °C3.9 °C89 %1023.7 hPa16.1 kmWNW (300°)5.6 km/hOvercast
Hourly data recorded from KLWS, located 0 kilometers away from Clarkston Heights, Washington







STORIES FROM OUR PARTNERS